This is the latest recevied weather packets stored in our database for station/object WA7SB-7. If no packets are shown the sender has not sent any weather packets the latest 10 day(s).
| Time | Temp. | Humidity | Pressure | Rain* | Wind** | Luminosity | Snow |
|---|---|---|---|---|---|---|---|
| 1777503029 | 16.11° C | 75% | 1022.9 hPa | 0 mm | - | - | - |
| 1777502970 | 16.11° C | 76% | 1023 hPa | 0 mm | - | - | - |
| 1777502728 | 16.11° C | 74% | 1023 hPa | 0 mm | - | - | - |
| 1777502668 | 16.11° C | 73% | 1023.1 hPa | 0 mm | - | - | - |
| 1777502423 | 16.11° C | 74% | 1023 hPa | 0 mm | - | - | - |
| 1777502362 | 16.11° C | 75% | 1023.1 hPa | 0 mm | - | - | - |
| 1777502123 | 16.11° C | 74% | 1023.1 hPa | 0 mm | - | - | - |
| 1777502060 | 16.11° C | 73% | 1023.1 hPa | 0 mm | - | - | - |
| 1777501816 | 16.67° C | 76% | 1023.1 hPa | 0 mm | - | - | - |
| 1777501757 | 16.11° C | 75% | 1023.2 hPa | 0 mm | - | - | - |
| 1777501515 | 16.11° C | 74% | 1023.1 hPa | 0 mm | - | - | - |
| 1777501474 | 16.11° C | 73% | 1023.2 hPa | 0 mm | - | - | - |
| 1777501230 | 16.11° C | 73% | 1023.2 hPa | 0 mm | - | - | - |
| 1777501170 | 16.11° C | 72% | 1023.3 hPa | 0 mm | - | - | - |
| 1777500928 | 16.11° C | 73% | 1023.3 hPa | 0 mm | - | - | - |
| 1777500867 | 16.11° C | 72% | 1023.2 hPa | 0 mm | - | - | - |
| 1777500624 | 16.67° C | 73% | 1023.4 hPa | 0 mm | - | - | - |
| 1777500565 | 16.67° C | 73% | 1023.4 hPa | 0 mm | - | - | - |
| 1777500324 | 16.11° C | 72% | 1023.3 hPa | 0 mm | - | - | - |
| 1777500257 | 16.11° C | 74% | 1023.4 hPa | 0 mm | - | - | - |
| 1777500017 | 16.11° C | 72% | 1023.4 hPa | 0 mm | - | - | - |
| 1777499956 | 16.11° C | 74% | 1023.4 hPa | 0 mm | - | - | - |
| 1777499715 | 16.11° C | 72% | 1023.5 hPa | 0 mm | - | - | - |
| 1777499674 | 16.11° C | 72% | 1023.4 hPa | 0 mm | - | - | - |
| 1777499429 | 16.11° C | 73% | 1023.4 hPa | 0 mm | - | - | - |
* Rain latest hour (hover to see other rain measurements)
** Current wind speed in m/s (hover to see current wind gust speed)